Location: Newark
(55.8372°N, 37.1596°E)
Time: 00:47:18
(UTC+00:00)

Envisat - Pass Details

Date: 25 October 2019
Orbit: 764 x 766 km, 98.1° (Epoch: 14 November)

Event Time Altitude Azimuth Distance (km) Brightness Sun altitude
Rises 03:04:30 0° 25° (NNE) 3,247 6.5 -11.4°
Reaches altitude 10° 03:07:44 10° 46° (NE) 2,314 6.1 -11.0°
Maximum altitude 03:10:52 16° 85° (E) 1,908 6.3 -10.5°
Drops below altitude 10° 03:14:01 10° 123° (ESE) 2,303 6.6 -10.1°
Sets 03:17:12 0° 144° (SE) 3,223 6.9 -9.7°
